{"data":{"norad_id":60289,"intl_designator":"2024-132M","name":"STARLINK-32000","alt_names":[],"object_type":"PAYLOAD","status":"ACTIVE","operator":null,"country":"US","launch_date":"2024-07-28","launch_site_code":"AFETR","launch_vehicle":null,"mission":null,"orbit_class":"UNKNOWN","rcs_meters":null,"size_class":null,"mass_kg":null,"dimensions":null,"purposes":["comms"],"wikipedia_slug":null,"has_3d_model":false,"image_url":null,"decayed_at":null,"tle_current":{"epoch":"2026-09-21T06:23:52.816128Z","epoch_age_seconds":115574,"freshness":"FRESH","line1":"1 60289U 24132M   26264.26658352 -.00001299  00000+0 -30089-4 0  9990","line2":"2 60289  53.1598 222.6136 0001388  83.4402 276.6758 15.31701107121529","mean_motion":15.31701107,"eccentricity":0.0001388,"inclination_deg":53.1598,"raan_deg":222.6136,"arg_perigee_deg":83.4402,"mean_anomaly_deg":276.6758,"bstar":-3.0089e-5,"rev_number":12152,"period_min":94.013120015327,"perigee_km":469.78607164933,"apogee_km":471.68731898715,"semimajor_km":6848.8736953182,"source":"CELESTRAK","updated_at":"2026-09-22T09:00:49.193692Z"}}}